When you browse on this site, cookies collect data to enhance your experience and personalize the content and advertising you see.
Visit our Privacy Policy to learn more. By continuing to use the site, you agree to this use of cookies and data.
  • In Denmark
  • List of Countries
  • For 7 days
  • Water Temperature
  • Satellite Maps
  • Weather Map
  • Weather Widgets
  • user-avatar
    Login

    Hourly Weather Seyðisfjörður

    Today, 22 March, Friday

    Time Temperature Precipitation Wind Pressure Humidity
    00:00 -4°C° 0.7 mm 5 mps 743 mmHg 88%
    01:00 -3°C° 0.7 mm 6 mps 740 mmHg 91%
    02:00 -4°C° 0.7 mm 8 mps 737 mmHg 95%
    03:00 -3°C° 3.3 mm 10 mps 733 mmHg 95%
    04:00 -3°C° 3.3 mm 12 mps 729 mmHg 95%
    05:00 -3°C° 0 mm 15 mps 724 mmHg 96%
    06:00 -2°C° 2.1 mm 12 mps 721 mmHg 97%
    07:00 0°C° 2.1 mm 9 mps 717 mmHg 98%
    08:00 +2°C° 2.1 mm 6 mps 714 mmHg 99%
    09:00 +2°C° 0.1 mm 5 mps 712 mmHg 99%
    10:00 +3°C° 0.1 mm 3 mps 710 mmHg 99%
    11:00 +2°C° 0 mm 5 mps 708 mmHg 99%
    12:00 0°C° 0.1 mm 9 mps 709 mmHg 93%
    13:00 -1°C° 0.1 mm 12 mps 709 mmHg 86%
    14:00 -3°C° 0.1 mm 16 mps 710 mmHg 79%
    15:00 -5°C° 0.1 mm 19 mps 712 mmHg 78%
    16:00 -5°C° 0.1 mm 21 mps 714 mmHg 76%
    17:00 -6°C° 0.1 mm 23 mps 716 mmHg 75%
    18:00 -8°C° 0.2 mm 22 mps 718 mmHg 76%
    19:00 -8°C° 0.2 mm 22 mps 721 mmHg 77%
    20:00 -9°C° 0.2 mm 22 mps 723 mmHg 79%
    21:00 -9°C° 0.1 mm 20 mps 726 mmHg 79%
    22:00 -10°C° 0.1 mm 19 mps 729 mmHg 79%
    23:00 -9°C° 0.1 mm 17 mps 731 mmHg 80%

    Tomorrow, 23 March, Saturday

    Time Temperature Precipitation Wind Pressure Humidity
    00:00 -9°C° 0 mm 15 mps 733 mmHg 80%
    01:00 -9°C° 0 mm 14 mps 736 mmHg 81%
    02:00 -10°C° 0 mm 12 mps 738 mmHg 82%
    03:00 -9°C° 0 mm 11 mps 739 mmHg 83%
    04:00 -9°C° 0 mm 10 mps 741 mmHg 83%
    05:00 -10°C° 0 mm 8 mps 742 mmHg 84%
    06:00 -9°C° 0 mm 7 mps 744 mmHg 83%
    07:00 -9°C° 0 mm 7 mps 745 mmHg 82%
    08:00 -9°C° 0 mm 6 mps 746 mmHg 80%
    09:00 -7°C° 0 mm 5 mps 747 mmHg 76%
    10:00 -6°C° 0 mm 5 mps 748 mmHg 72%
    11:00 -4°C° 0 mm 4 mps 748 mmHg 68%
    12:00 -3°C° 0 mm 4 mps 748 mmHg 69%
    13:00 -2°C° 0 mm 3 mps 748 mmHg 70%
    14:00 -1°C° 0 mm 3 mps 747 mmHg 71%
    15:00 -1°C° 0.1 mm 3 mps 746 mmHg 76%
    16:00 -1°C° 0.1 mm 3 mps 746 mmHg 82%
    17:00 -1°C° 0.1 mm 3 mps 745 mmHg 87%
    18:00 -2°C° 0 mm 3 mps 744 mmHg 90%
    19:00 -2°C° 0 mm 3 mps 743 mmHg 92%
    20:00 -4°C° 0 mm 4 mps 742 mmHg 95%
    21:00 -3°C° 0 mm 4 mps 742 mmHg 94%
    22:00 -3°C° 0 mm 4 mps 741 mmHg 94%
    23:00 -2°C° 0 mm 4 mps 740 mmHg 93%

    Day after tomorrow, 24 March, Sunday

    Time Temperature Precipitation Wind Pressure Humidity
    00:00 -3°C° 0 mm 4 mps 740 mmHg 91%
    01:00 -3°C° 0 mm 4 mps 740 mmHg 88%
    02:00 -4°C° 0 mm 4 mps 739 mmHg 85%
    03:00 -5°C° 0 mm 4 mps 740 mmHg 81%
    04:00 -7°C° 0 mm 4 mps 740 mmHg 76%
    05:00 -10°C° 0 mm 5 mps 740 mmHg 72%
    06:00 -7°C° 0.2 mm 5 mps 741 mmHg 75%
    07:00 -6°C° 0.2 mm 5 mps 742 mmHg 79%
    08:00 -5°C° 0.2 mm 5 mps 743 mmHg 83%
    09:00 -4°C° 0 mm 6 mps 745 mmHg 81%
    10:00 -3°C° 0 mm 7 mps 746 mmHg 79%
    11:00 -1°C° 0 mm 8 mps 747 mmHg 77%
    12:00 -1°C° 0 mm 8 mps 748 mmHg 78%
    13:00 -1°C° 0 mm 8 mps 749 mmHg 78%
    14:00 -1°C° 0 mm 8 mps 751 mmHg 79%
    15:00 -2°C° 0 mm 7 mps 752 mmHg 79%
    16:00 -2°C° 0 mm 6 mps 753 mmHg 80%
    17:00 -2°C° 0 mm 5 mps 754 mmHg 81%
    18:00 -5°C° 0 mm 5 mps 755 mmHg 80%
    19:00 -6°C° 0 mm 5 mps 756 mmHg 79%
    20:00 -8°C° 0 mm 5 mps 757 mmHg 77%
    21:00 -8°C° 0 mm 4 mps 758 mmHg 76%
    22:00 -8°C° 0 mm 4 mps 758 mmHg 75%
    23:00 -9°C° 0 mm 4 mps 759 mmHg 74%

    25 March, Monday

    Time Temperature Precipitation Wind Pressure Humidity
    00:00 -8°C° 0 mm 3 mps 759 mmHg 75%
    01:00 -8°C° 0 mm 3 mps 759 mmHg 75%
    02:00 -7°C° 0 mm 2 mps 759 mmHg 75%
    03:00 -7°C° 0 mm 2 mps 759 mmHg 76%
    04:00 -6°C° 0 mm 2 mps 759 mmHg 76%
    05:00 -6°C° 0 mm 2 mps 758 mmHg 76%
    06:00 -5°C° 0 mm 2 mps 758 mmHg 80%
    07:00 -5°C° 0 mm 3 mps 757 mmHg 83%
    08:00 -2°C° 0 mm 3 mps 757 mmHg 86%
    09:00 -2°C° 0.4 mm 3 mps 756 mmHg 88%
    10:00 -2°C° 0.4 mm 3 mps 755 mmHg 91%
    11:00 -1°C° 0.4 mm 3 mps 754 mmHg 93%
    12:00 -1°C° 0.2 mm 4 mps 753 mmHg 95%
    13:00 0°C° 0.2 mm 4 mps 752 mmHg 97%
    14:00 +1°C° 0.2 mm 5 mps 750 mmHg 99%
    15:00 +2°C° 0.1 mm 5 mps 749 mmHg 99%
    16:00 +2°C° 0.1 mm 5 mps 748 mmHg 99%
    17:00 +2°C° 0.1 mm 5 mps 747 mmHg 98%
    18:00 +2°C° 0 mm 5 mps 747 mmHg 97%
    19:00 +3°C° 0 mm 4 mps 747 mmHg 95%
    20:00 +3°C° 0 mm 4 mps 747 mmHg 94%
    21:00 +1°C° 0 mm 4 mps 747 mmHg 89%
    22:00 +1°C° 0 mm 4 mps 748 mmHg 84%
    23:00 +2°C° 0 mm 3 mps 748 mmHg 79%

    26 March, Tuesday

    Time Temperature Precipitation Wind Pressure Humidity
    00:00 +2°C° 0 mm 3 mps 748 mmHg 77%
    01:00 +2°C° 0 mm 3 mps 748 mmHg 75%
    02:00 +2°C° 0 mm 3 mps 748 mmHg 73%
    03:00 +1°C° 0 mm 3 mps 748 mmHg 73%
    04:00 +1°C° 0 mm 3 mps 748 mmHg 73%
    05:00 +1°C° 0 mm 3 mps 748 mmHg 74%
    06:00 +1°C° 0 mm 3 mps 748 mmHg 77%
    07:00 +3°C° 0 mm 2 mps 748 mmHg 80%
    08:00 +4°C° 0 mm 2 mps 748 mmHg 83%
    09:00 +4°C° 0 mm 2 mps 749 mmHg 87%
    10:00 +3°C° 0 mm 3 mps 749 mmHg 91%
    11:00 +3°C° 0 mm 3 mps 749 mmHg 95%
    12:00 +3°C° 0 mm 3 mps 749 mmHg 93%
    13:00 +3°C° 0 mm 4 mps 750 mmHg 91%
    14:00 +3°C° 0 mm 4 mps 750 mmHg 89%
    15:00 +2°C° 0 mm 5 mps 751 mmHg 83%
    16:00 +1°C° 0 mm 5 mps 751 mmHg 78%
    17:00 +1°C° 0 mm 6 mps 752 mmHg 73%
    18:00 -2°C° 0 mm 6 mps 753 mmHg 70%
    19:00 -3°C° 0 mm 6 mps 754 mmHg 67%
    20:00 -5°C° 0 mm 6 mps 754 mmHg 64%
    21:00 -5°C° 0 mm 6 mps 755 mmHg 65%
    22:00 -5°C° 0 mm 5 mps 755 mmHg 66%
    23:00 -6°C° 0 mm 5 mps 755 mmHg 66%

    27 March, Wednesday

    Time Temperature Precipitation Wind Pressure Humidity
    00:00 -6°C° 0 mm 6 mps 754 mmHg 70%
    01:00 -6°C° 0 mm 6 mps 754 mmHg 73%
    02:00 -6°C° 0 mm 6 mps 753 mmHg 77%
    03:00 -4°C° 0 mm 7 mps 752 mmHg 78%
    04:00 -4°C° 0 mm 8 mps 751 mmHg 80%
    05:00 -1°C° 0 mm 9 mps 749 mmHg 81%
    06:00 0°C° 0 mm 9 mps 749 mmHg 80%
    07:00 +1°C° 0 mm 10 mps 748 mmHg 79%
    08:00 +2°C° 0 mm 11 mps 747 mmHg 78%
    09:00 +2°C° 0 mm 11 mps 747 mmHg 81%
    10:00 +2°C° 0 mm 11 mps 747 mmHg 84%
    11:00 +2°C° 0 mm 10 mps 746 mmHg 87%
    12:00 +3°C° 0 mm 10 mps 746 mmHg 88%
    13:00 +3°C° 0 mm 9 mps 746 mmHg 89%
    14:00 +4°C° 0 mm 8 mps 746 mmHg 90%
    15:00 +4°C° 0 mm 8 mps 746 mmHg 89%
    16:00 +3°C° 0 mm 7 mps 746 mmHg 89%
    17:00 +3°C° 0 mm 6 mps 746 mmHg 88%
    18:00 +3°C° 0 mm 6 mps 745 mmHg 87%
    19:00 +3°C° 0 mm 7 mps 745 mmHg 87%
    20:00 +3°C° 0 mm 7 mps 745 mmHg 86%
    21:00 +3°C° 0 mm 7 mps 745 mmHg 86%
    22:00 +3°C° 0 mm 7 mps 744 mmHg 87%
    23:00 +3°C° 0 mm 7 mps 744 mmHg 87%
    Show more